Wetbulb
62.04 61.80 61.50 61.37 61.24 60.94 60.80 60.96 61.13 60.88 60.60 60.75 61.01 61.30 61.33 61.74 62.12 59.13 55.12 58.88 62.53 67.40 66.63 61.02 60.77 59.72 59.28 57.82 58.59 57.78 50.29 47.44 47.41 48.02 49.69 53.70 52.88 55.41 56.49 54.56 54.99 55.66 56.16 60.78 66.57
62.32 62.34 62.01 61.60 61.17 61.17 61.20 60.56 60.68 60.82 61.25 61.43 60.85 60.94 60.93 61.20 58.96 56.35 61.27 63.51 66.36 65.23 58.69 56.42 56.81 57.78 55.76 55.18 57.08 54.28 49.31 47.66 51.12 51.69 51.16 52.96 53.55 54.41 53.51 53.93 54.28 55.28 57.70 58.99 64.33
62.59 62.32 62.41 61.86 61.24 61.27 61.22 61.02 60.51 60.80 61.14 61.53 60.94 60.51 60.57 61.05 54.90 55.54 64.99 66.35 67.64 66.81 58.92 58.56 58.99 56.23 52.73 54.77 54.18 53.21 49.04 50.86 51.38 51.89 53.04 52.95 53.17 54.41 52.76 51.59 53.76 53.55 55.36 57.02 58.71
62.82 62.43 62.28 62.07 61.58 61.33 61.57 61.25 60.51 60.31 60.72 60.50 60.11 60.81 60.71 59.16 48.71 56.31 66.33 66.22 67.12 63.36 59.89 57.73 56.23 52.96 51.45 50.10 53.42 49.77 52.37 52.76 53.22 53.69 53.17 52.10 53.68 52.14 53.05 53.87 55.85 55.78 56.18 56.37 56.37
62.88 62.74 62.51 62.33 61.59 61.30 61.55 61.51 60.54 60.16 59.82 59.47 60.80 60.63 58.30 52.20 52.27 62.16 67.19 68.45 65.34 60.41 57.02 55.28 53.55 53.16 50.58 51.80 51.71 50.59 51.43 52.44 53.37 52.92 52.42 52.74 51.29 51.64 52.12 54.76 55.08 55.33 55.27 55.52 55.93
63.06 62.89 62.71 62.17 61.55 61.28 61.38 61.08 59.77 59.80 59.44 59.97 59.71 59.14 55.16 49.97 59.59 63.45 61.29 59.63 59.94 58.49 56.32 56.45 54.99 55.33 52.43 50.81 49.97 50.87 50.93 51.11 51.78 51.72 52.07 50.23 51.16 50.12 51.96 53.43 54.24 54.65 54.96 55.54 55.55
63.03 62.82 62.42 61.84 61.26 61.09 61.00 59.92 59.34 59.02 59.63 59.02 58.96 58.70 52.33 51.26 58.16 60.92 60.69 59.19 58.94 56.73 53.89 56.74 56.67 54.36 52.85 49.97 51.86 51.13 48.15 50.35 51.05 50.65 49.69 50.30 47.97 48.33 52.16 53.40 53.34 54.19 55.06 55.33 55.07
62.87 61.70 61.96 61.29 60.93 60.87 60.13 58.62 58.21 59.68 58.97 59.43 59.84 57.52 50.71 56.34 60.53 56.26 58.36 56.47 59.33 59.96 58.63 59.05 58.09 55.13 53.17 53.01 51.26 48.30 48.20 44.79 48.73 48.81 49.31 49.07 45.21 49.71 52.33 52.61 52.44 53.70 54.50 54.78 54.61
62.94 61.87 61.43 60.94 60.51 60.44 58.67 57.77 56.93 59.07 59.81 59.99 58.81 56.86 50.77 60.74 53.94 53.67 55.21 54.67 57.13 58.76 59.36 58.25 57.13 53.16 52.34 48.43 46.62 47.30 43.40 44.75 45.72 48.81 48.16 47.67 46.01 50.44 52.80 52.45 52.08 53.20 53.54 53.34 55.08
61.91 61.36 60.58 60.23 60.02 59.35 56.59 56.65 55.68 53.76 53.72 58.88 58.39 53.33 53.33 49.44 50.99 51.77 53.87 53.23 54.25 56.88 55.45 54.98 53.69 50.38 49.45 47.30 41.57 43.49 43.29 44.74 43.79 47.30 48.21 46.75 46.84 50.48 52.34 52.20 51.97 51.96 52.60 53.69 54.14
60.88 60.99 60.05 59.84 59.49 56.27 54.39 54.28 51.91 51.91 50.72 45.59 46.06 46.00 48.26 50.78 51.33 51.59 53.23 52.87 54.19 53.45 49.33 51.81 48.31 46.11 48.28 48.82 47.67 45.84 44.04 43.10 46.24 48.77 46.32 46.28 46.86 48.78 51.09 51.37 50.84 50.93 51.70 52.43 53.11
60.39 60.54 59.79 59.19 58.13 52.73 53.77 48.08 45.62 46.01 42.63 47.82 46.81 46.37 48.63 49.19 46.89 50.96 52.71 49.16 49.24 46.17 49.14 47.46 44.40 48.71 48.74 47.74 45.99 45.08 43.34 43.26 46.31 47.73 45.96 45.73 45.47 48.61 50.08 49.50 49.25 49.39 50.18 50.94 52.23
59.81 60.08 59.13 57.65 54.17 53.24 49.31 46.82 50.20 49.05 43.96 46.46 47.61 47.34 48.59 48.90 48.36 48.77 51.19 50.01 47.01 45.05 45.90 44.25 45.94 47.85 46.21 45.25 43.89 44.40 42.92 43.21 43.18 46.32 46.85 45.13 43.67 45.54 47.58 49.04 48.90 48.88 49.24 49.72 50.40
59.08 59.54 57.21 56.48 55.79 52.39 48.88 49.13 50.09 51.36 43.63 43.65 45.94 48.75 50.56 50.88 45.76 48.26 49.08 49.40 47.12 44.02 44.79 45.06 47.13 44.84 44.49 43.31 44.69 40.88 46.31 45.05 43.50 42.14 38.39 44.09 36.00 44.14 46.73 46.12 45.80 45.61 45.95 46.41 48.17
58.48 58.01 53.75 53.88 54.65 52.38 49.63 50.92 51.11 49.74 37.15 44.55 45.87 52.63 48.45 45.57 45.57 46.30 47.98 49.49 44.63 44.80 44.55 43.36 43.36 42.98 42.52 43.65 45.18 42.47 43.04 43.02 43.27 41.56 41.00 40.81 37.46 41.99 45.22 43.63 42.03 42.80 43.84 44.87 46.31
58.29 58.07 54.63 55.74 55.74 51.70 52.33 50.08 49.24 42.71 36.43 41.54 43.82 42.61 42.89 42.79 42.71 44.08 44.83 47.69 46.47 43.72 44.33 43.90 43.69 42.16 43.07 42.79 42.90 43.98 41.25 42.09 42.12 40.34 33.38 38.99 38.37 38.86 42.29 42.32 40.32 41.44 42.55 43.33 44.40
58.10 58.78 56.68 54.76 53.22 53.70 52.69 48.56 43.03 38.30 44.01 39.74 40.13 41.41 40.22 40.97 40.80 40.71 40.60 41.57 40.65 37.49 38.92 41.59 40.68 40.49 38.32 37.86 41.29 39.84 38.59 32.64 31.72 31.98 31.41 39.65 36.77 39.57 40.54 39.31 39.01 39.24 40.84 41.93 43.13
57.48 58.20 56.40 56.30 54.39 54.74 50.77 47.35 36.21 41.22 41.50 42.96 40.49 40.42 38.57 38.99 39.55 37.92 38.50 38.65 39.88 38.87 37.63 35.62 34.15 37.91 38.40 37.57 37.65 38.52 38.37 33.01 25.86 28.89 32.22 37.21 32.66 39.20 40.51 39.29 39.48 39.97 40.86 41.30 40.99
55.94 57.24 56.20 53.64 54.64 55.86 47.92 39.23 39.41 41.01 41.80 40.13 41.18 38.34 39.15 36.40 36.29 37.50 37.56 38.90 39.88 40.00 35.99 35.73 35.37 36.20 35.62 36.05 36.31 37.20 33.31 37.72 32.27 33.51 29.23 33.99 37.50 38.63 39.32 37.22 38.60 38.97 38.62 38.69 40.25
55.06 53.03 52.93 49.79 53.01 50.56 44.71 39.03 40.92 42.60 41.24 40.12 36.41 39.46 36.56 38.50 37.51 38.92 38.19 39.44 38.67 37.96 38.46 37.67 31.25 36.13 35.35 36.07 35.68 34.20 36.12 30.08 31.80 22.76 22.36 30.07 32.99 34.07 36.41 35.44 35.83 35.73 37.01 38.92 40.24
53.53 48.78 48.35 49.18 48.17 43.16 38.49 39.59 40.31 43.79 42.69 40.27 38.74 37.60 38.17 36.84 37.57 36.61 35.67 39.87 40.42 38.40 36.98 35.53 32.50 33.33 33.03 32.07 32.85 31.91 31.00 31.25 31.68 30.32 24.36 23.10 30.47 36.88 34.86 33.52 34.16 36.19 37.97 39.05 40.14
52.02 44.20 47.91 47.86 42.24 42.08 39.13 40.11 40.83 41.37 42.29 41.34 40.55 39.87 38.01 38.29 36.18 36.35 35.80 38.91 37.18 36.85 34.02 36.44 31.79 28.54 31.01 32.76 33.96 31.83 30.24 30.24 26.11 23.91 26.28 23.87 26.88 37.63 35.66 35.29 36.71 37.32 38.58 39.94 41.01
47.53 45.97 48.14 46.52 37.39 37.91 40.38 38.18 39.81 39.96 39.77 39.71 38.63 38.41 37.37 35.60 30.93 34.61 34.98 36.47 36.71 35.66 34.31 35.33 30.51 25.37 26.71 30.62 31.31 29.02 31.39 30.33 30.03 28.12 23.27 21.32 26.57 35.51 35.44 35.62 37.41 37.74 39.28 40.76 41.83
46.21 40.63 42.29 41.20 40.98 37.73 36.57 36.48 36.17 39.25 37.95 38.18 36.93 38.50 37.20 35.00 36.73 32.72 34.85 36.68 36.17 35.73 37.86 35.82 29.80 28.06 24.68 25.99 27.73 24.22 27.31 28.67 28.00 23.58 24.69 24.98 26.81 30.39 32.38 34.21 36.79 38.69 39.98 40.93 41.99
43.96 39.41 40.37 37.50 35.55 36.71 36.07 34.98 34.75 35.26 38.17 37.93 36.54 35.71 35.45 32.34 32.45 32.25 35.06 35.04 35.43 36.20 35.77 33.73 26.79 28.57 29.42 29.75 28.66 27.66 27.11 26.95 24.20 26.88 22.15 25.98 23.55 28.54 32.69 34.90 37.43 39.41 40.29 40.40 40.73
42.30 39.77 39.08 34.75 34.08 33.81 34.46 33.75 32.89 35.72 36.15 34.01 34.54 36.56 35.77 32.97 33.29 30.78 33.85 32.92 32.58 34.21 34.21 33.60 27.63 28.51 25.92 28.29 27.33 25.52 27.83 27.83 27.37 27.02 25.86 26.77 26.35 34.21 36.79 38.56 37.92 38.39 38.85 37.95 37.62
45.01 43.97 42.98 37.17 34.51 33.75 33.68 33.75 33.82 35.94 37.33 38.89 37.39 35.63 34.21 36.02 38.46 38.42 36.55 36.90 35.32 31.92 30.85 30.27 28.35 25.17 21.58 24.22 24.80 22.18 27.08 27.90 28.30 29.37 28.76 24.50 31.03 35.16 35.28 36.14 37.22 38.01 38.25 36.37 36.88
MSLP
1021.26 1020.94 1020.57 1020.17 1019.79 1019.40 1018.98 1018.51 1018.03 1017.54 1017.00 1016.49 1016.08 1015.71 1015.38 1015.03 1014.37 1013.82 1012.41 1012.29 1012.17 1012.40 1012.46 1012.34 1012.15 1011.99 1011.85 1011.84 1012.07 1011.91 1010.68 1009.59 1009.59 1009.78 1009.72 1009.94 1009.51 1009.45 1009.31 1008.61 1008.31 1008.02 1007.86 1008.03 1008.43
1021.30 1020.90 1020.53 1020.13 1019.72 1019.26 1018.79 1018.34 1017.83 1017.32 1016.83 1016.30 1015.87 1015.47 1015.15 1014.93 1013.93 1012.63 1012.29 1012.40 1012.47 1012.50 1012.18 1011.89 1011.75 1011.84 1011.58 1011.71 1011.81 1011.30 1010.71 1009.97 1010.35 1010.25 1009.99 1010.08 1009.95 1009.72 1009.40 1008.70 1008.36 1008.07 1007.87 1008.04 1008.27
1021.28 1020.93 1020.48 1020.06 1019.62 1019.11 1018.56 1018.02 1017.48 1016.94 1016.45 1016.03 1015.65 1015.33 1015.08 1014.77 1013.46 1012.01 1012.25 1012.43 1012.51 1012.53 1012.18 1012.07 1011.94 1011.81 1011.58 1011.72 1011.59 1011.53 1010.61 1010.87 1010.71 1010.88 1010.89 1010.47 1010.24 1010.11 1009.37 1008.56 1008.39 1008.29 1008.06 1007.91 1007.88
1021.22 1020.86 1020.47 1020.04 1019.56 1018.97 1018.33 1017.75 1017.22 1016.62 1016.02 1015.64 1015.32 1015.03 1014.81 1014.24 1012.91 1012.20 1012.48 1012.59 1012.60 1012.45 1012.22 1012.11 1011.96 1011.71 1011.55 1011.45 1011.74 1011.64 1011.23 1011.27 1011.20 1011.43 1011.38 1011.07 1010.69 1010.14 1009.64 1009.07 1009.13 1009.15 1008.82 1008.29 1007.85
1021.08 1020.74 1020.33 1019.88 1019.34 1018.75 1018.06 1017.49 1016.93 1016.26 1015.72 1015.32 1014.98 1014.87 1014.69 1013.31 1012.25 1012.42 1012.62 1012.70 1012.62 1012.63 1012.20 1012.03 1011.83 1011.74 1011.49 1011.65 1011.88 1011.52 1011.25 1011.37 1011.39 1011.42 1011.15 1010.87 1010.53 1010.07 1009.51 1009.27 1009.37 1009.21 1008.93 1008.38 1008.02
1020.88 1020.64 1020.26 1019.77 1019.18 1018.48 1017.69 1017.00 1016.34 1015.74 1015.28 1014.92 1014.61 1014.73 1013.96 1012.93 1012.71 1012.61 1012.73 1012.78 1012.65 1012.64 1012.48 1012.38 1012.02 1012.02 1011.82 1011.83 1011.84 1011.71 1011.53 1011.13 1010.93 1010.66 1010.66 1010.73 1010.13 1010.35 1009.38 1009.47 1009.01 1008.72 1008.42 1008.34 1008.22
1020.90 1020.59 1020.14 1019.62 1019.00 1018.15 1017.08 1016.44 1015.85 1015.38 1015.07 1014.90 1014.74 1014.34 1013.50 1013.08 1012.87 1012.77 1012.83 1012.72 1012.81 1012.68 1012.52 1012.67 1012.55 1012.33 1012.37 1012.03 1012.34 1011.88 1011.32 1010.60 1010.07 1010.33 1010.27 1010.49 1009.73 1009.35 1009.18 1009.15 1008.68 1008.12 1007.72 1008.07 1008.49
1020.73 1020.39 1019.99 1019.46 1018.77 1017.74 1016.54 1016.03 1015.56 1015.20 1015.04 1014.90 1014.74 1014.06 1012.77 1012.91 1012.75 1012.76 1012.64 1012.57 1012.77 1012.74 1012.63 1012.64 1012.62 1012.44 1012.27 1012.44 1011.89 1011.47 1011.07 1010.21 1010.06 1010.38 1010.46 1010.43 1008.79 1008.88 1009.05 1008.80 1008.54 1008.08 1007.73 1008.27 1008.56
1020.42 1020.02 1019.69 1019.26 1018.63 1017.54 1016.19 1015.62 1015.25 1015.02 1015.00 1014.94 1014.50 1013.65 1012.70 1012.79 1012.74 1012.80 1012.57 1012.35 1012.56 1012.66 1012.60 1012.66 1012.55 1012.53 1012.55 1011.90 1011.09 1010.91 1009.89 1009.69 1010.10 1010.37 1010.18 1009.94 1008.80 1008.65 1008.77 1008.62 1008.35 1008.19 1008.32 1008.69 1008.86
1020.33 1019.99 1019.67 1019.22 1018.55 1017.53 1016.06 1015.25 1015.05 1014.95 1014.87 1014.63 1014.37 1013.96 1013.11 1013.15 1013.15 1013.02 1012.71 1012.60 1012.31 1012.40 1012.52 1012.44 1012.34 1012.04 1012.08 1011.58 1010.37 1010.12 1010.01 1009.72 1009.76 1010.00 1010.07 1009.61 1008.69 1008.59 1008.57 1008.51 1008.45 1008.77 1009.17 1009.41 1009.35
1020.40 1020.03 1019.68 1019.26 1018.69 1017.94 1016.29 1014.82 1015.23 1014.86 1014.95 1015.67 1015.37 1014.68 1013.92 1013.57 1013.48 1012.88 1012.82 1012.65 1012.55 1012.44 1012.14 1012.59 1012.14 1011.35 1011.05 1011.22 1011.11 1011.00 1010.63 1009.97 1009.88 1010.00 1010.00 1009.38 1008.70 1008.35 1008.29 1008.48 1008.72 1009.57 1009.80 1010.12 1010.10
1020.35 1020.04 1019.74 1019.34 1018.88 1018.27 1017.15 1017.56 1019.30 1019.86 1017.51 1015.89 1015.66 1015.33 1014.70 1014.46 1013.49 1013.00 1013.06 1012.74 1012.54 1012.17 1012.61 1012.72 1011.70 1011.42 1011.92 1012.05 1011.99 1011.59 1010.92 1010.07 1009.65 1010.00 1010.24 1008.90 1008.18 1008.11 1007.90 1008.73 1010.27 1010.57 1010.42 1010.51 1010.56
1020.41 1020.09 1019.79 1019.32 1018.88 1018.52 1018.71 1019.46 1019.82 1019.80 1018.08 1015.59 1015.08 1014.65 1014.40 1014.38 1013.52 1013.10 1013.08 1012.75 1012.48 1012.36 1012.34 1011.97 1011.58 1012.34 1012.20 1012.08 1012.03 1011.58 1011.23 1010.48 1010.10 1009.91 1009.67 1009.23 1007.91 1007.77 1008.82 1009.87 1010.62 1011.19 1011.50 1011.31 1011.24
1020.49 1020.16 1019.81 1019.21 1019.09 1019.41 1019.26 1019.92 1019.78 1019.59 1017.37 1015.24 1014.52 1014.30 1014.26 1013.98 1013.76 1013.85 1013.69 1013.34 1012.84 1012.51 1012.59 1012.36 1012.38 1012.86 1012.76 1012.36 1012.21 1011.14 1010.95 1010.94 1010.46 1010.28 1008.84 1009.14 1007.57 1007.33 1007.97 1009.77 1010.82 1011.59 1012.06 1011.86 1011.95
1020.56 1020.41 1020.23 1019.66 1019.64 1019.26 1019.79 1019.82 1019.75 1019.40 1016.58 1014.89 1014.24 1014.19 1014.07 1013.99 1014.03 1013.81 1014.16 1013.55 1013.06 1012.82 1013.34 1012.08 1012.62 1012.84 1012.57 1012.04 1012.30 1011.45 1011.92 1011.51 1010.93 1010.13 1009.43 1008.65 1008.72 1007.11 1008.05 1009.47 1011.19 1012.06 1012.26 1012.57 1012.56
1020.58 1020.51 1020.43 1020.08 1019.93 1019.75 1019.59 1019.52 1019.33 1017.94 1015.27 1014.52 1014.22 1014.14 1013.92 1014.01 1014.05 1014.08 1013.89 1013.80 1013.72 1013.29 1013.17 1012.53 1013.30 1013.16 1012.77 1012.86 1012.80 1012.44 1012.22 1011.66 1011.26 1010.78 1009.17 1008.30 1008.38 1007.56 1008.58 1009.98 1011.70 1012.66 1013.01 1013.18 1012.88
1020.52 1020.42 1020.34 1020.22 1019.81 1019.87 1019.35 1018.59 1017.53 1015.90 1014.46 1014.50 1014.32 1014.38 1014.38 1013.99 1013.86 1014.06 1013.90 1013.58 1013.47 1013.30 1012.51 1012.15 1012.91 1013.27 1013.77 1013.42 1013.17 1013.10 1012.42 1011.30 1010.39 1009.72 1008.44 1008.51 1008.62 1008.32 1010.82 1012.20 1013.00 1013.40 1013.50 1013.62 1013.54
1020.42 1020.44 1020.45 1020.19 1020.28 1020.07 1019.13 1017.96 1016.67 1014.91 1014.49 1014.88 1014.96 1014.79 1014.70 1014.65 1014.29 1014.39 1014.14 1013.65 1014.18 1014.13 1013.10 1012.53 1011.86 1013.55 1014.19 1013.94 1013.41 1012.86 1012.57 1011.75 1010.40 1009.43 1008.91 1009.97 1009.48 1009.66 1012.12 1013.52 1014.31 1014.30 1014.13 1013.86 1013.66
1020.66 1020.39 1020.37 1020.69 1020.73 1020.28 1019.28 1017.78 1015.67 1015.55 1015.70 1015.46 1015.15 1014.68 1014.72 1015.41 1015.61 1015.30 1014.80 1014.24 1014.23 1014.50 1014.15 1013.22 1012.81 1014.30 1014.86 1015.02 1015.07 1013.44 1013.68 1013.28 1012.60 1012.23 1011.65 1010.51 1010.35 1012.20 1013.25 1014.19 1014.57 1014.34 1014.30 1014.08 1013.84
1020.62 1020.62 1020.62 1021.36 1021.05 1020.52 1019.52 1018.05 1017.17 1017.03 1016.77 1016.55 1016.04 1015.80 1015.20 1015.45 1016.06 1015.71 1015.54 1015.42 1015.23 1015.59 1015.73 1014.75 1014.32 1014.60 1015.36 1015.75 1015.52 1015.24 1015.10 1014.51 1014.31 1013.93 1012.89 1011.46 1010.83 1011.08 1013.23 1014.25 1014.52 1014.01 1013.96 1014.02 1013.89
1020.59 1020.47 1021.49 1021.41 1021.39 1021.04 1020.07 1018.89 1018.61 1018.26 1018.22 1017.63 1016.90 1016.68 1016.92 1016.96 1016.91 1016.99 1016.28 1016.15 1016.22 1016.41 1016.93 1016.68 1016.34 1015.61 1016.38 1015.84 1015.29 1015.83 1015.71 1015.85 1015.80 1016.00 1014.91 1013.59 1012.14 1013.20 1013.99 1014.68 1014.37 1014.03 1013.84 1013.83 1013.60
1020.43 1020.70 1021.63 1021.61 1021.59 1021.05 1020.15 1019.98 1020.02 1019.22 1019.01 1018.76 1018.30 1017.76 1017.68 1017.53 1017.21 1017.46 1017.07 1016.84 1017.80 1017.73 1017.51 1017.40 1017.44 1016.44 1016.08 1016.99 1017.39 1017.09 1017.12 1017.20 1017.61 1017.51 1017.33 1016.63 1014.18 1014.21 1014.48 1014.52 1014.41 1013.90 1013.77 1013.59 1013.46
1020.74 1021.28 1021.81 1021.68 1021.49 1021.37 1020.97 1020.73 1020.29 1019.98 1019.68 1019.21 1019.17 1019.14 1018.71 1018.93 1018.71 1018.25 1018.09 1018.58 1018.71 1018.51 1018.43 1018.10 1017.97 1017.34 1017.19 1017.42 1017.86 1017.60 1017.83 1018.58 1019.20 1018.94 1017.75 1016.91 1014.53 1014.83 1014.66 1014.82 1014.68 1014.32 1014.09 1013.76 1013.35
1021.67 1021.93 1022.27 1022.35 1022.61 1022.22 1021.76 1021.11 1020.78 1020.67 1020.46 1020.51 1020.31 1020.41 1019.86 1019.44 1019.47 1019.63 1019.21 1019.27 1019.47 1019.59 1019.63 1019.37 1019.27 1018.26 1017.58 1017.77 1018.30 1018.27 1018.59 1018.76 1018.81 1018.29 1017.20 1016.42 1015.44 1015.24 1015.33 1015.25 1014.88 1014.54 1014.24 1013.84 1013.11
1022.18 1022.34 1022.71 1022.79 1022.82 1022.87 1023.02 1022.76 1022.11 1021.64 1021.62 1021.37 1020.80 1020.45 1020.30 1020.36 1019.88 1019.63 1019.51 1019.82 1020.17 1020.08 1020.61 1020.71 1019.60 1019.14 1018.75 1018.54 1018.33 1018.27 1018.30 1018.73 1018.74 1018.17 1017.95 1016.71 1016.76 1016.14 1015.96 1015.62 1014.92 1014.28 1013.98 1013.49 1013.00
1022.55 1022.77 1023.03 1023.11 1023.46 1023.33 1023.45 1022.82 1022.31 1021.74 1022.10 1021.38 1020.71 1020.15 1020.41 1020.45 1020.12 1019.82 1020.05 1020.22 1020.00 1020.27 1020.65 1020.77 1019.61 1018.92 1018.52 1018.33 1018.45 1018.06 1017.91 1017.90 1017.96 1017.91 1017.79 1017.37 1016.75 1016.36 1015.97 1015.40 1014.75 1014.37 1014.22 1013.99 1013.66
1023.02 1023.33 1022.90 1022.95 1023.33 1023.16 1022.76 1022.25 1022.06 1021.98 1021.18 1020.91 1020.69 1020.46 1020.09 1019.78 1019.81 1019.83 1020.30 1020.32 1020.50 1020.18 1020.35 1020.37 1019.55 1019.21 1018.28 1018.66 1018.30 1017.48 1016.61 1016.80 1016.81 1016.94 1017.08 1016.75 1015.80 1015.87 1015.64 1015.13 1014.58 1014.33 1014.23 1014.28 1014.09
Wind_Speed
15 15 16 16 16 17 18 18 18 18 17 18 18 17 16 14 14 5 3 4 2 5 6 6 4 4 3 3 1 1 5 5 2 2 2 2 3 0 4 6 2 1 5 6 6
15 15 16 16 17 17 17 19 19 19 17 17 18 17 14 13 7 4 5 4 3 7 6 7 6 5 3 3 3 5 4 1 1 1 2 3 5 9 6 6 8 6 4 3 2
14 16 16 17 18 18 18 18 20 19 18 17 16 15 12 10 6 3 3 5 5 5 2 2 4 3 4 3 4 3 4 2 2 4 5 6 10 4 9 8 6 11 12 10 9
13 15 17 17 17 19 19 19 21 21 20 18 16 12 9 4 4 4 2 2 4 4 5 5 5 4 4 4 2 6 6 6 3 1 5 10 11 10 11 14 12 13 15 15 15
11 13 16 17 19 21 21 20 20 20 20 17 13 8 6 5 1 4 4 6 5 5 5 4 6 3 5 1 2 7 5 6 7 8 10 9 13 12 16 12 6 8 8 10 13
10 14 15 17 19 21 22 21 22 20 16 10 2 3 5 4 3 3 4 2 2 2 2 3 3 2 2 2 5 4 8 11 9 12 9 11 12 3 4 2 9 7 9 9 10
12 13 15 17 19 21 24 21 20 16 6 3 1 2 3 4 3 2 0 2 1 1 1 2 0 4 1 4 3 6 10 12 11 5 2 3 9 9 3 7 13 12 10 7 9
10 14 13 15 19 22 25 20 17 6 2 1 2 3 1 1 3 2 1 3 3 2 1 2 2 1 3 1 5 9 7 7 5 3 4 4 11 1 3 12 14 16 14 12 11
12 11 10 15 18 23 26 21 8 2 0 1 4 4 4 1 2 3 2 2 3 3 3 5 3 1 4 7 9 6 11 10 10 2 2 3 12 7 13 16 14 12 10 9 10
11 11 11 14 18 22 27 17 2 4 3 3 2 4 2 2 3 4 1 2 2 7 6 5 5 7 6 8 10 12 13 14 12 4 13 18 21 17 15 15 12 9 8 9 11
11 11 11 14 17 18 15 4 6 2 9 6 8 6 7 6 4 2 1 3 3 5 8 3 8 11 11 10 12 13 16 20 17 15 16 16 16 15 15 14 6 3 7 11 13
10 11 11 13 14 12 8 7 4 3 10 4 6 7 6 4 3 2 2 5 7 12 3 6 14 13 8 11 13 15 18 19 16 7 7 16 18 17 15 3 4 6 8 10 13
10 10 11 14 7 3 8 6 5 3 7 2 2 3 2 3 2 3 2 2 3 6 9 13 4 3 4 6 11 14 17 18 18 15 15 16 18 6 9 10 6 8 10 12 14
9 9 12 17 2 5 3 5 4 4 6 4 1 3 2 2 1 3 4 3 3 4 4 8 2 9 12 14 12 16 11 15 15 11 12 2 10 12 10 10 7 8 10 14 15
8 5 8 11 4 3 6 7 0 4 7 4 3 2 1 3 2 3 1 3 6 4 4 2 4 7 10 12 9 13 2 10 13 14 16 19 9 14 6 14 5 9 13 12 13
7 1 1 0 2 4 7 5 4 5 5 2 2 2 3 1 1 4 2 1 1 4 8 15 1 5 11 6 10 7 10 13 12 12 16 22 18 14 11 4 4 7 10 13 14
6 2 2 0 3 7 8 4 5 6 3 2 1 2 2 3 3 1 2 8 8 8 12 7 13 3 2 8 8 10 12 10 11 11 15 5 9 12 8 6 6 6 9 12 15
5 3 1 2 3 7 5 6 7 1 5 2 2 5 7 3 2 1 4 8 7 7 12 13 18 6 6 6 8 9 14 12 13 13 13 2 8 2 10 8 5 5 9 12 16
3 0 1 4 5 4 4 6 5 2 3 4 7 10 8 1 4 5 5 11 5 7 10 13 14 4 1 2 3 4 11 7 10 9 7 10 6 7 8 4 2 8 11 14 16
1 2 2 8 4 2 4 5 5 3 3 2 7 4 9 5 7 8 8 2 5 4 3 8 15 3 2 3 4 8 4 5 5 6 7 9 14 6 8 2 10 16 17 16 15
2 3 5 5 2 1 4 5 5 5 5 5 6 9 12 13 13 15 8 14 10 5 4 5 5 5 1 7 8 6 6 4 4 2 5 4 3 6 7 5 15 18 18 18 16
2 3 3 2 3 2 5 3 4 4 3 6 7 13 18 16 16 17 16 15 4 2 7 4 5 11 10 1 3 3 6 4 4 5 3 3 7 4 5 16 19 21 21 21 19
1 1 2 2 4 5 5 4 5 12 12 4 9 5 3 7 7 6 5 2 3 5 4 3 6 7 6 7 3 6 6 6 8 6 12 8 4 3 14 18 19 21 21 21 21
0 1 2 1 2 3 5 8 8 1 2 4 5 6 10 8 8 6 8 2 2 1 4 3 7 11 10 3 2 3 7 7 9 7 6 11 15 16 16 18 19 20 20 19 20
2 1 2 2 3 6 3 3 3 4 1 3 4 9 6 4 5 8 9 7 5 4 3 5 7 10 14 14 10 11 9 12 12 11 8 9 6 13 15 16 19 19 18 20 24
1 1 1 3 3 3 4 3 4 8 4 6 9 11 4 7 11 16 9 7 7 9 6 6 4 6 11 7 10 13 13 13 15 15 12 14 17 13 9 14 16 17 18 19 21
1 1 3 5 3 3 4 4 3 5 8 13 9 8 12 14 13 13 9 12 6 6 10 6 6 6 7 2 6 11 13 15 12 8 12 11 6 10 11 13 15 14 16 16 19
Wind_Direction
3 0 357 353 349 344 341 339 338 336 330 326 327 327 326 327 307 226 252 50 113 145 161 143 155 136 156 119 125 219 238 244 256 239 70 360 319 84 327 265 313 327 303 359 3
359 357 352 348 344 340 336 334 332 331 326 320 323 322 322 329 296 258 81 170 166 159 168 177 168 167 153 146 168 234 250 264 55 242 242 280 298 323 293 270 281 267 231 306 295
357 352 348 346 342 337 330 326 327 326 322 319 319 316 314 311 267 76 131 192 193 205 166 157 148 201 210 205 180 160 262 140 242 251 276 284 284 291 290 273 275 307 309 300 273
351 350 346 342 337 333 327 324 324 322 319 320 317 306 298 244 323 76 119 206 202 199 166 156 185 197 230 232 169 255 261 257 321 271 304 300 315 286 286 291 327 312 303 289 276
343 344 343 339 336 331 323 320 321 316 317 317 312 295 258 229 18 69 88 100 139 186 213 204 208 231 258 281 237 251 297 283 267 277 275 270 267 277 277 298 331 323 303 300 291
352 345 341 336 330 324 319 321 321 323 320 323 8 254 250 250 32 59 102 122 108 198 184 215 311 283 316 275 258 341 289 283 283 275 263 273 281 240 147 16 321 317 301 326 333
353 343 341 334 330 325 322 327 328 329 342 22 83 280 252 23 33 27 19 52 92 33 68 205 39 253 6 289 332 297 297 297 277 304 251 269 237 229 179 313 319 311 301 356 339
333 346 338 333 330 325 320 330 329 333 26 60 247 264 26 75 317 153 177 124 130 137 104 156 173 133 275 255 250 282 268 289 94 322 105 258 293 241 203 325 313 304 312 341 337
337 340 338 336 332 328 319 329 314 318 13 248 250 302 99 345 129 357 328 107 128 141 109 117 170 215 197 252 268 195 282 287 298 236 247 265 297 265 288 298 291 302 326 335 346
335 336 339 339 338 332 320 321 298 248 213 245 219 229 106 36 335 325 273 247 169 151 151 185 189 224 216 228 275 300 280 275 264 244 284 286 278 281 283 280 290 328 347 354 353
340 341 343 340 339 335 335 337 341 171 32 350 319 280 283 317 257 195 1 181 177 221 233 202 240 242 265 255 283 276 272 275 281 288 276 277 282 282 277 279 305 355 15 3 357
341 345 343 334 338 338 9 56 48 311 309 307 290 267 285 291 274 99 236 223 216 246 214 229 254 277 278 271 252 257 268 273 285 281 262 283 288 293 278 113 88 35 24 11 359
344 349 346 335 327 24 58 57 321 203 270 304 273 301 2 222 54 59 296 175 242 234 235 257 316 107 197 237 246 252 264 276 282 289 275 274 278 190 108 128 94 48 26 19 6
349 356 353 329 274 353 45 2 328 224 281 108 97 98 173 276 115 355 6 306 197 280 248 268 314 257 266 262 263 270 261 259 270 279 276 196 289 271 236 157 68 43 28 20 5
350 21 23 18 334 358 356 339 328 233 295 67 78 23 337 320 3 132 18 220 266 245 231 353 248 247 250 256 220 264 262 263 268 262 273 257 248 287 170 183 65 39 34 25 12
337 99 258 45 288 352 320 311 226 251 257 87 29 335 276 67 170 317 221 206 349 245 238 264 332 244 268 276 243 305 269 258 262 262 253 263 256 257 278 100 103 45 32 19 12
314 162 241 328 338 335 312 259 282 242 106 110 350 338 314 258 226 279 260 218 245 256 258 228 235 197 224 264 224 234 251 262 244 218 253 286 284 249 125 101 81 39 18 4 357
298 175 175 283 324 327 300 281 262 261 268 65 308 280 270 348 223 261 246 253 219 248 277 276 282 191 144 250 289 244 253 243 261 261 279 90 248 92 116 109 75 19 357 353 350
151 38 289 34 325 277 262 262 275 247 8 322 292 270 277 153 292 304 258 282 288 221 253 298 267 118 219 278 268 206 233 315 281 265 276 254 243 166 154 145 348 353 346 346 344
100 335 29 342 314 267 238 262 290 315 333 287 281 268 284 313 313 319 308 7 289 254 286 298 283 205 148 250 194 256 5 223 207 248 240 251 263 276 168 327 341 341 342 342 338
195 286 44 352 283 36 243 266 297 312 299 284 291 282 291 301 287 288 265 290 273 294 248 313 262 248 220 216 274 196 219 225 296 249 276 287 268 76 92 351 333 331 331 330 331
200 253 32 308 204 204 239 258 348 303 324 297 299 277 276 282 280 276 267 259 23 260 275 274 287 270 273 60 277 275 296 305 227 162 238 310 273 107 23 344 338 333 329 326 322
267 62 80 301 233 234 239 262 277 278 274 257 275 310 354 289 285 290 279 24 352 246 253 180 222 270 259 203 181 239 255 235 219 221 233 244 231 122 339 339 332 326 324 324 323
177 227 114 89 355 294 279 269 246 93 255 305 311 311 277 278 248 271 266 236 359 276 26 30 245 231 267 346 14 203 200 204 215 220 244 236 292 317 330 325 324 323 323 318 321
10 141 351 188 201 254 39 344 296 300 329 242 217 233 246 260 264 247 267 269 241 214 170 200 237 229 253 256 258 267 239 204 216 252 255 290 283 298 307 312 315 327 328 331 336
291 204 183 139 152 153 174 215 250 267 226 248 246 285 239 237 263 291 283 255 277 196 198 199 252 247 265 252 247 255 248 239 228 243 251 271 277 273 300 312 325 341 341 342 329
122 182 300 155 169 179 209 228 254 311 251 259 283 291 270 274 283 284 289 263 247 234 208 197 225 224 257 237 265 253 239 230 232 232 226 242 305 328 318 323 334 345 342 353 324